WetterOnline ( http://www.wetteronline.de )

Wetter aktuell Marburg

Aktuelles Wetter: Neu-Ulrichstein (350m)

6-stündlich | Neueste Meldungen
Ortszeit Temperatur Wetter
So, 21.10. 2:00 5.2° C bewölkt
Sa, 20.10. 20:00 9.0° C wolkig
Sa, 20.10. 14:00 11.7° C wolkig
Sa, 20.10. 8:00 6.0° C wolkenlos
Sa, 20.10. 2:00 10.0° C bedeckt
Fr, 19.10. 20:00 12.3° C wolkig
Fr, 19.10. 14:00 13.5° C bedeckt
Fr, 19.10. 8:00 9.3° C bedeckt
Ortszeit Temperatur Wetter
So, 21.10. 7:30 3.6° C fast wolkenlos
So, 21.10. 7:20 3.6° C fast wolkenlos
So, 21.10. 7:10 3.6° C fast wolkenlos
So, 21.10. 7:00 4.5° C leicht bewölkt
So, 21.10. 6:50 4.5° C leicht bewölkt
So, 21.10. 6:40 4.7° C wolkig
So, 21.10. 6:30 4.3° C bewölkt
So, 21.10. 6:00 3.7° C leicht bewölkt
So, 21.10. 5:30 4.2° C wolkenlos
So, 21.10. 5:00 4.5° C wolkenlos
So, 21.10. 4:30 4.5° C fast wolkenlos
Ortszeit Relative Feuchte Sichtweite
So, 21.10. 2:00 88% 20 km
Sa, 20.10. 20:00 70% 30 km
Sa, 20.10. 14:00 68% 21 km
Sa, 20.10. 8:00 94% 9 km
Sa, 20.10. 2:00 83% 23 km
Fr, 19.10. 20:00 81% 14 km
Fr, 19.10. 14:00 76% 13 km
Fr, 19.10. 8:00 99% 2.0 km
Ortszeit Relative Feuchte Sichtweite
So, 21.10. 7:30 94% 8 km
So, 21.10. 7:20 94% -
So, 21.10. 7:10 93% -
So, 21.10. 7:00 89% 13 km
So, 21.10. 6:50 89% -
So, 21.10. 6:40 90% -
So, 21.10. 6:30 90% 12 km
So, 21.10. 6:00 94% 9 km
So, 21.10. 5:30 92% 11 km
So, 21.10. 5:00 90% 18 km
So, 21.10. 4:30 91% 15 km
Ortszeit Niederschlagsmenge Niederschlagsart
So, 21.10. 2:00 0.0 l/m2 in 6 Std. -
Sa, 20.10. 20:00 0.0 l/m2 in 12 Std. -
Sa, 20.10. 14:00 0.0 l/m2 in 6 Std. -
Sa, 20.10. 8:00 0.0 l/m2 in 12 Std. -
Sa, 20.10. 2:00 0.0 l/m2 in 6 Std. -
Fr, 19.10. 20:00 0.0 l/m2 in 12 Std. -
Fr, 19.10. 14:00 0.0 l/m2 in 6 Std. -
Fr, 19.10. 8:00 0.0 l/m2 in 12 Std. -
Ortszeit Niederschlagsmenge Niederschlagsart
So, 21.10. 7:30 0.0 l/m2 in 1 Std. -
So, 21.10. 7:20 keine Meldung -
So, 21.10. 7:10 keine Meldung -
So, 21.10. 7:00 0.0 l/m2 in 1 Std. -
So, 21.10. 6:50 keine Meldung -
So, 21.10. 6:40 keine Meldung -
So, 21.10. 6:30 0.0 l/m2 in 1 Std. -
So, 21.10. 6:00 0.0 l/m2 in 1 Std. -
So, 21.10. 5:30 0.0 l/m2 in 1 Std. -
So, 21.10. 5:00 0.0 l/m2 in 1 Std. -
So, 21.10. 4:30 0.0 l/m2 in 1 Std. -
Ortszeit Stärke Spitze Richtung
km/h Bft. km/h Grad Sektor
So, 21.10. 2:00 6 1 17 270° W
Sa, 20.10. 20:00 11 2 22 10° N
Sa, 20.10. 14:00 4 1 18 330° NW
Sa, 20.10. 8:00 9 2 15 310° NW
Sa, 20.10. 2:00 7 2 14 10° N
Fr, 19.10. 20:00 7 2 18 30° NO
Fr, 19.10. 14:00 11 2 18 80° O
Fr, 19.10. 8:00 6 1 19 40° NO
Ortszeit Stärke Spitze Richtung
km/h Bft. km/h Grad Sektor
So, 21.10. 7:30 7 2 7 320° NW
So, 21.10. 7:20 7 2 - 320° NW
So, 21.10. 7:10 6 1 - 320° NW
So, 21.10. 7:00 6 1 7 20° N
So, 21.10. 6:50 6 1 - 20° N
So, 21.10. 6:40 4 1 - 30° NO
So, 21.10. 6:30 6 1 6 350° N
So, 21.10. 6:00 6 1 7 320° NW
So, 21.10. 5:30 7 2 7 320° NW
So, 21.10. 5:00 6 1 7 340° N
So, 21.10. 4:30 6 1 7 310° NW
Ortszeit Untergrenze Bedeckung Gattung
total tief tief mittel hoch
So, 21.10. 2:00 6600 m 7/8 7/8 - - -
Sa, 20.10. 20:00 8700 m 8/8 0/8 - - -
Sa, 20.10. 14:00 540 m 7/8 5/8 - - -
Sa, 20.10. 8:00 - 0/8 0/8 - - -
Sa, 20.10. 2:00 1200 m 8/8 8/8 - - -
Fr, 19.10. 20:00 840 m 7/8 5/8 - - -
Fr, 19.10. 14:00 420 m 8/8 8/8 - - -
Fr, 19.10. 8:00 60 m 8/8 8/8 - - -
Ortszeit Bedeckungsgrad in Achtel und Wolkenuntergrenze
So, 21.10. 7:30 1(3900m)
So, 21.10. 7:20 1(3900m)
So, 21.10. 7:10 1(3900m)
So, 21.10. 7:00 3(3900m)
So, 21.10. 6:50 3(3900m)
So, 21.10. 6:40 6(3900m)
So, 21.10. 6:30 7(3900m)
So, 21.10. 6:00 4(3900m)
So, 21.10. 5:30 keine Wolken
So, 21.10. 5:00 keine Wolken
So, 21.10. 4:30 1(9000m)
Ortszeit Luftdruck NN (hPa) Tendenz (hPa in 3 Std.)
So, 21.10. 2:00 1031 - 0,7
Sa, 20.10. 20:00 1031 + 1,1
Sa, 20.10. 14:00 1030 0,0
Sa, 20.10. 8:00 1029 + 1,0
Sa, 20.10. 2:00 1027 + 0,8
Fr, 19.10. 20:00 1024 + 0,6
Fr, 19.10. 14:00 1024 - 0,3
Fr, 19.10. 8:00 1024 + 0,4
Ortszeit Luftdruck NN (hPa) Tendenz (hPa in 3 Std.)
So, 21.10. 7:30 1031 - 0,8
So, 21.10. 7:20 1031 keine Meldung
So, 21.10. 7:10 1030 keine Meldung
So, 21.10. 7:00 1030 - 0,8
So, 21.10. 6:50 1030 keine Meldung
So, 21.10. 6:40 1031 keine Meldung
So, 21.10. 6:30 1031 - 0,4
So, 21.10. 6:00 1031 - 0,1
So, 21.10. 5:30 1031 + 0,1
So, 21.10. 5:00 1031 - 0,3
So, 21.10. 4:30 1031 - 0,2
Ortszeit Schneehöhe (cm)
So, 21.10. 2:00 0
Sa, 20.10. 20:00 0
Sa, 20.10. 14:00 0
Sa, 20.10. 8:00 0
Sa, 20.10. 2:00 0
Fr, 19.10. 20:00 0
Fr, 19.10. 14:00 0
Fr, 19.10. 8:00 0
Ortszeit Schneehöhe (cm)
So, 21.10. 7:30 0
So, 21.10. 7:20 0
So, 21.10. 7:10 0
So, 21.10. 7:00 0
So, 21.10. 6:50 0
So, 21.10. 6:40 0
So, 21.10. 6:30 0
So, 21.10. 6:00 0
So, 21.10. 5:30 0
So, 21.10. 5:00 0
So, 21.10. 4:30 0
Link zu dieser Seite / Seite empfehlen

Das Wetter in ...